[[{"header":{"parameterUnit":"m.s-1","parameterCategory":1,"la1":30.2991,"la2":30.254,"lo1":-89.0895,"lo2":-89.0444,"dy":0.0017,"dx":0.0017,"nx":28,"ny":28,"refTime":"2024-07-06T03:00:00:Z","depth":0,"parameterNumber":2,"parameterNumberName":"U-component_of_WINDS"},"data":[0,0,0,0,0,0,0,0,0,0,0,0,0,0,0,0,0,0,0,0,0,0,0,0,0,0,0,0,0,0,0,0,0,0,0,0,0,0,0,0,0,0,0,0,0,0,0,0,0,0,0,0,0,0,0,0,0,0,-0.6948,-0.6948,0,-0.6978,-0.6979,-0.6979,-0.6997,-0.6997,-0.6998,-0.6998,-0.7027,-0.7028,-0.7028,0,0,0,0,0,0,0,0,0,0,0,0,0,-0.6903,-0.6904,-0.6948,-0.6948,-0.6949,-0.6978,-0.6979,-0.6979,-0.6997,-0.6997,-0.6998,-0.6998,-0.7027,-0.7027,-0.7028,0,0,0,0,0,0,0,0,0,0,0,0,0,-0.6927,-0.6904,-0.6948,-0.6961,-0.6963,-0.6978,-0.6979,-0.6979,-0.6997,-0.6997,-0.6998,-0.6998,-0.7026,-0.7027,-0.7028,-0.7032,0,0,-0.7032,-0.7032,0,0,0,0,0,0,0,0,-0.6926,-0.6929,-0.6959,-0.696,-0.6962,-0.6984,-0.6974,-0.6997,-0.6997,-0.6984,-0.6998,-0.6998,-0.7012,-0.7015,-0.702,-0.7033,-0.7035,-0.7032,-0.7032,-0.7033,-0.7033,0,0,0,0,0,0,0,-0.6924,-0.6927,-0.696,-0.6959,-0.6961,-0.6965,-0.6969,-0.6978,-0.6997,-0.6985,-0.6987,-0.699,-0.7013,-0.7019,-0.7021,-0.7035,-0.7032,-0.7033,-0.7033,-0.7034,-0.7053,-0.7053,0,0,0,0,0,0,-0.692,-0.6926,-0.6959,-0.6961,-0.6944,-0.6966,-0.697,-0.6977,-0.6997,-0.7,-0.699,-0.6991,-0.7017,-0.702,-0.7022,-0.7028,-0.7033,-0.7034,-0.7034,-0.7053,-0.7053,-0.7053,0,0,0,0,0,0,-0.6919,-0.6923,-0.6958,-0.6944,-0.6948,-0.6967,-0.6974,-0.6978,-0.6983,-0.7001,-0.7004,-0.6993,-0.7017,-0.702,-0.703,-0.7029,-0.7034,-0.7035,-0.7053,-0.7053,-0.7053,-0.7039,0,0,0,0,0,0,-0.6918,-0.6923,-0.6925,-0.6944,-0.6949,-0.6965,-0.6974,-0.6978,-0.6985,-0.6987,-0.7004,-0.7007,-0.7018,-0.7028,-0.7031,-0.703,-0.7036,-0.7053,-0.7053,-0.7053,-0.7039,-0.7038,-0.7037,0,0,0,0,0,-0.6916,-0.6919,-0.6925,-0.6929,-0.6952,-0.6965,-0.6968,-0.6981,-0.6985,-0.6987,-0.6998,-0.7006,-0.7028,-0.7029,-0.7032,-0.7032,-0.7053,-0.7053,-0.7053,-0.704,-0.7038,-0.7037,0,0,0,0,0,0,-0.6899,-0.6922,-0.6928,-0.6938,-0.6949,-0.6968,-0.6971,-0.6979,-0.699,-0.6991,-0.7006,-0.701,-0.7017,-0.7025,-0.7025,-0.7036,-0.7042,-0.7042,-0.7031,-0.7029,-0.7028,-0.7026,-0.7037,0,0,0,0,0,-0.6896,-0.6906,-0.6925,-0.6931,-0.6937,-0.6953,-0.6959,-0.6968,-0.6981,-0.6986,-0.6998,-0.7009,-0.7019,-0.7024,-0.7034,-0.7041,-0.7044,-0.7042,-0.7041,-0.704,-0.704,-0.7044,-0.7043,-0.7052,-0.7052,-0.7052,0,0,-0.689,-0.6904,-0.6909,-0.6928,-0.6938,-0.6947,-0.6957,-0.6966,-0.6972,-0.6987,-0.6996,-0.7005,-0.7019,-0.7027,-0.7031,-0.7034,-0.7038,-0.704,-0.7039,-0.7039,-0.7043,-0.7043,-0.7042,-0.7052,-0.7052,-0.7052,0,0,-0.6885,-0.6896,-0.6903,-0.6913,-0.6929,-0.6939,-0.6941,-0.6959,-0.6965,-0.6975,-0.6986,-0.6994,-0.701,-0.702,-0.7026,-0.7024,-0.7032,-0.7027,-0.7021,-0.7024,-0.7023,-0.7023,-0.7022,-0.7021,-0.7027,-0.7027,-0.7027,0,-0.6875,-0.689,-0.6905,-0.6913,-0.6921,-0.6935,-0.6941,-0.695,-0.6968,-0.6972,-0.6976,-0.6997,-0.7007,-0.7017,-0.7016,-0.7022,-0.7023,-0.7025,-0.7022,-0.7022,-0.7022,-0.7021,-0.702,-0.7026,-0.7026,-0.7026,-0.7026,0,-0.6877,-0.6887,-0.689,-0.6908,-0.6916,-0.6923,-0.6938,-0.6944,-0.6953,-0.6963,-0.6973,-0.6986,-0.6998,-0.7001,-0.7009,-0.7012,-0.7014,-0.702,-0.7025,-0.702,-0.7019,-0.7019,-0.7025,-0.7025,-0.7025,-0.7026,0,0,-0.6861,-0.6887,-0.6888,-0.6896,-0.6914,-0.6922,-0.6929,-0.6942,-0.6947,-0.6959,-0.6965,-0.6979,-0.6985,-0.6992,-0.7001,-0.7005,-0.7002,-0.701,-0.7011,-0.7008,-0.7006,-0.7001,-0.7,-0.7007,-0.7007,-0.7007,-0.7004,0,-0.6858,-0.6873,-0.6886,-0.6896,-0.6905,-0.6919,-0.6925,-0.6937,-0.6947,-0.6955,-0.6966,-0.6975,-0.6982,-0.6987,-0.699,-0.7001,-0.7001,-0.7002,-0.7013,-0.7013,-0.7008,-0.7,-0.6995,-0.6992,-0.7004,-0.7004,-0.7004,0,-0.6856,-0.6868,-0.6878,-0.6896,-0.69,-0.6906,-0.6919,-0.6927,-0.694,-0.6947,-0.6956,-0.6966,-0.6974,-0.6979,-0.699,-0.699,-0.6995,-0.7001,-0.7001,-0.7003,-0.7008,-0.7001,-0.6991,-0.699,-0.7004,-0.7004,-0.7004,0,-0.6842,-0.6861,-0.687,-0.6876,-0.6897,-0.6901,-0.6909,-0.6923,-0.693,-0.6941,-0.6946,-0.6957,-0.6964,-0.6972,-0.6985,-0.6987,-0.6994,-0.7,-0.7,-0.6999,-0.7,-0.7,-0.6991,-0.7004,-0.7004,-0.7004,-0.7004,0,-0.6837,-0.6843,-0.6864,-0.6869,-0.6876,-0.6892,-0.6898,-0.6908,-0.692,-0.6927,-0.694,-0.6946,-0.6962,-0.697,-0.698,-0.6988,-0.699,-0.6996,-0.6998,-0.6994,-0.6994,-0.6998,-0.6998,-0.7004,-0.7004,-0.7004,-0.7004,0,-0.6823,-0.6837,-0.6848,-0.6867,-0.6872,-0.6876,-0.6892,-0.6898,-0.6908,-0.6917,-0.692,-0.6936,-0.6947,-0.696,-0.6974,-0.6981,-0.6987,-0.6991,-0.6983,-0.6984,-0.6982,-0.6982,-0.6976,-0.6975,-0.6989,-0.6989,-0.6989,0,-0.6818,-0.6823,-0.6843,-0.6849,-0.6858,-0.6867,-0.6874,-0.6889,-0.6896,-0.6912,-0.6915,-0.6927,-0.6937,-0.6952,-0.6965,-0.6976,-0.698,-0.6977,-0.6982,-0.6978,-0.698,-0.6979,-0.6979,-0.6976,-0.6975,-0.6975,-0.6975,0,-0.6808,-0.6815,-0.6826,-0.6839,-0.6847,-0.6858,-0.6869,-0.6873,-0.6891,-0.6898,-0.6909,-0.6916,-0.6931,-0.6942,-0.6955,-0.6963,-0.6972,-0.6974,-0.6974,-0.697,-0.6965,-0.6967,-0.6979,-0.6974,-0.6974,-0.6974,-0.6974,-0.6974,-0.6799,-0.6804,-0.6818,-0.683,-0.684,-0.685,-0.6856,-0.6868,-0.6877,-0.6891,-0.6899,-0.691,-0.6923,-0.6941,-0.6949,-0.6957,-0.696,-0.6961,-0.6961,-0.6961,-0.6959,-0.6964,-0.6959,-0.6959,-0.696,-0.696,-0.696,0,-0.6789,-0.6799,-0.6809,-0.6825,-0.6834,-0.6842,-0.6855,-0.6861,-0.6871,-0.6882,-0.6892,-0.6904,-0.6915,-0.6929,-0.6941,-0.6944,-0.6949,-0.6947,-0.6946,-0.6948,-0.6956,-0.6954,-0.6943,-0.6943,-0.6943,-0.6943,-0.6943,-0.6943,-0.6785,-0.6794,-0.6803,-0.6817,-0.6827,-0.6838,-0.6844,-0.6854,-0.6863,-0.6877,-0.6886,-0.6895,-0.6908,-0.692,-0.693,-0.6934,-0.6937,-0.6934,-0.6939,-0.6946,-0.6948,-0.6949,-0.6948,-0.6935,-0.6935,-0.6931,-0.6931,-0.6931]},{"header":{"parameterUnit":"m.s-1","parameterCategory":1,"la1":30.2991,"la2":30.254,"lo1":-89.0895,"lo2":-89.0444,"dy":0.0017,"dx":0.0017,"nx":28,"ny":28,"refTime":"2024-07-06T03:00:00:Z","depth":0,"parameterNumber":3,"parameterNumberName":"V-component_of_WINDS"},"data":[0,0,0,0,0,0,0,0,0,0,0,0,0,0,0,0,0,0,0,0,0,0,0,0,0,0,0,0,0,0,0,0,0,0,0,0,0,0,0,0,0,0,0,0,0,0,0,0,0,0,0,0,0,0,0,0,0,0,-0.3554,-0.3555,0,-0.3589,-0.3589,-0.359,-0.3683,-0.3685,-0.3687,-0.3689,-0.3719,-0.3718,-0.3717,0,0,0,0,0,0,0,0,0,0,0,0,0,-0.3564,-0.3564,-0.3554,-0.3555,-0.3555,-0.3589,-0.3589,-0.359,-0.3682,-0.3685,-0.3687,-0.3689,-0.372,-0.3719,-0.3717,0,0,0,0,0,0,0,0,0,0,0,0,0,-0.3575,-0.3564,-0.3554,-0.3605,-0.361,-0.3589,-0.3589,-0.359,-0.3682,-0.3685,-0.3688,-0.3691,-0.372,-0.3719,-0.3717,-0.3647,0,0,-0.3712,-0.3712,0,0,0,0,0,0,0,0,-0.3575,-0.3575,-0.3598,-0.3602,-0.3607,-0.3635,-0.3604,-0.3609,-0.3681,-0.3654,-0.3689,-0.3692,-0.3688,-0.369,-0.3689,-0.3649,-0.365,-0.3712,-0.3711,-0.3711,-0.371,0,0,0,0,0,0,0,-0.3574,-0.3574,-0.3568,-0.3598,-0.3604,-0.3625,-0.363,-0.3606,-0.3654,-0.3657,-0.3664,-0.3667,-0.3692,-0.3691,-0.3691,-0.365,-0.3712,-0.3711,-0.371,-0.3709,-0.3553,-0.3549,0,0,0,0,0,0,-0.3566,-0.3573,-0.3567,-0.3569,-0.3598,-0.3623,-0.3628,-0.3623,-0.3655,-0.3662,-0.3664,-0.3671,-0.3692,-0.3693,-0.3692,-0.3611,-0.3711,-0.3709,-0.3708,-0.3556,-0.3552,-0.3548,0,0,0,0,0,0,-0.3566,-0.3565,-0.3565,-0.3573,-0.3575,-0.362,-0.3612,-0.3622,-0.3621,-0.366,-0.3669,-0.3655,-0.3694,-0.3694,-0.3658,-0.3613,-0.3708,-0.3707,-0.3559,-0.3555,-0.355,-0.3449,0,0,0,0,0,0,-0.3566,-0.3564,-0.3539,-0.3572,-0.3574,-0.3531,-0.361,-0.362,-0.3619,-0.3628,-0.3653,-0.366,-0.3697,-0.366,-0.3656,-0.3613,-0.3706,-0.3564,-0.3557,-0.3552,-0.3456,-0.3441,-0.3428,0,0,0,0,0,-0.3566,-0.3508,-0.3537,-0.3536,-0.3543,-0.3528,-0.3529,-0.3574,-0.3615,-0.3589,-0.3614,-0.366,-0.362,-0.3655,-0.3652,-0.3608,-0.3567,-0.3559,-0.3552,-0.3462,-0.3444,-0.3428,0,0,0,0,0,0,-0.3468,-0.3513,-0.3546,-0.3497,-0.3508,-0.3544,-0.3513,-0.3553,-0.3551,-0.356,-0.3614,-0.3619,-0.3574,-0.3588,-0.3626,-0.3541,-0.36,-0.3592,-0.3533,-0.3516,-0.3502,-0.3498,-0.3704,0,0,0,0,0,-0.3441,-0.3426,-0.3467,-0.342,-0.3424,-0.3467,-0.3462,-0.3496,-0.3509,-0.3513,-0.3536,-0.3545,-0.3535,-0.3527,-0.3519,-0.3459,-0.3465,-0.3427,-0.3413,-0.3402,-0.3393,-0.3361,-0.3344,-0.3525,-0.3525,-0.3525,0,0,-0.3384,-0.3407,-0.3394,-0.34,-0.3413,-0.3395,-0.347,-0.3448,-0.3435,-0.3509,-0.3476,-0.3493,-0.3507,-0.3458,-0.3437,-0.3468,-0.3345,-0.3392,-0.3383,-0.3381,-0.3351,-0.3334,-0.3319,-0.352,-0.3521,-0.3521,0,0,-0.3271,-0.3288,-0.325,-0.3261,-0.328,-0.331,-0.33,-0.333,-0.3344,-0.3312,-0.3367,-0.3352,-0.3333,-0.3341,-0.3342,-0.3233,-0.3273,-0.3229,-0.3154,-0.3122,-0.3108,-0.3095,-0.3054,-0.3038,-0.3221,-0.322,-0.322,0,-0.3197,-0.3174,-0.3225,-0.32,-0.32,-0.3269,-0.3229,-0.3238,-0.3252,-0.325,-0.3285,-0.3262,-0.3277,-0.323,-0.3203,-0.3203,-0.3192,-0.3225,-0.3106,-0.3094,-0.3083,-0.3044,-0.3029,-0.3215,-0.3215,-0.3216,-0.3216,0,-0.3081,-0.3064,-0.3031,-0.3045,-0.3042,-0.3009,-0.3054,-0.3045,-0.3079,-0.3104,-0.3069,-0.309,-0.3087,-0.3079,-0.3111,-0.3036,-0.3054,-0.3097,-0.3157,-0.3059,-0.3023,-0.3009,-0.3206,-0.3208,-0.321,-0.3212,0,0,-0.2905,-0.2948,-0.2935,-0.2942,-0.2968,-0.2954,-0.2925,-0.2924,-0.2914,-0.2922,-0.2897,-0.288,-0.292,-0.2921,-0.2955,-0.2927,-0.2836,-0.2973,-0.2974,-0.2945,-0.2752,-0.2717,-0.2699,-0.2865,-0.2863,-0.286,-0.275,0,-0.2796,-0.275,-0.2795,-0.2738,-0.2722,-0.2787,-0.2762,-0.2774,-0.2797,-0.2785,-0.2811,-0.2797,-0.2851,-0.2852,-0.2828,-0.2852,-0.2798,-0.2862,-0.284,-0.2838,-0.2831,-0.2681,-0.2645,-0.2539,-0.2736,-0.2734,-0.2732,0,-0.2663,-0.2666,-0.2607,-0.2637,-0.2632,-0.2608,-0.261,-0.2599,-0.2614,-0.2633,-0.2634,-0.2676,-0.2648,-0.2709,-0.2669,-0.2712,-0.2706,-0.2716,-0.2714,-0.2711,-0.2777,-0.2672,-0.2507,-0.249,-0.2711,-0.2713,-0.2714,0,-0.2537,-0.2527,-0.249,-0.2494,-0.2528,-0.2509,-0.2522,-0.254,-0.2537,-0.2538,-0.2536,-0.2534,-0.2532,-0.2529,-0.2569,-0.261,-0.2523,-0.2588,-0.2535,-0.2534,-0.2512,-0.2512,-0.2341,-0.2512,-0.2513,-0.2513,-0.2513,0,-0.2409,-0.237,-0.2434,-0.2411,-0.2369,-0.2422,-0.2378,-0.2398,-0.2414,-0.2395,-0.2452,-0.2432,-0.2487,-0.2473,-0.2504,-0.2465,-0.2465,-0.2477,-0.2485,-0.2471,-0.2468,-0.2465,-0.2472,-0.2509,-0.251,-0.2511,-0.2511,0,-0.226,-0.2302,-0.2266,-0.2301,-0.2309,-0.2276,-0.2306,-0.2286,-0.2314,-0.2289,-0.2286,-0.2328,-0.2315,-0.2355,-0.2347,-0.2368,-0.2311,-0.2333,-0.2306,-0.2311,-0.2256,-0.2259,-0.2074,-0.2051,-0.224,-0.2238,-0.2236,0,-0.2174,-0.2146,-0.2179,-0.2171,-0.2181,-0.2168,-0.2165,-0.2216,-0.221,-0.2225,-0.2202,-0.2193,-0.2189,-0.2164,-0.2193,-0.2187,-0.2207,-0.2143,-0.2206,-0.2192,-0.2203,-0.2203,-0.2199,-0.2128,-0.2126,-0.2124,-0.2123,0,-0.2017,-0.2039,-0.2033,-0.2034,-0.2029,-0.2031,-0.2038,-0.2028,-0.2083,-0.2073,-0.206,-0.2057,-0.205,-0.204,-0.2041,-0.2053,-0.2095,-0.2103,-0.209,-0.2073,-0.2058,-0.2063,-0.2267,-0.2106,-0.2108,-0.2109,-0.211,-0.2111,-0.1895,-0.1873,-0.1892,-0.1883,-0.1894,-0.1899,-0.1881,-0.1907,-0.1898,-0.1897,-0.1928,-0.1909,-0.1924,-0.1929,-0.1937,-0.1922,-0.1951,-0.1933,-0.1928,-0.1922,-0.1911,-0.2063,-0.1922,-0.1923,-0.1923,-0.1924,-0.1924,0,-0.1738,-0.1755,-0.1746,-0.1754,-0.1746,-0.1791,-0.18,-0.179,-0.1773,-0.1785,-0.178,-0.1765,-0.1755,-0.1784,-0.1779,-0.1761,-0.178,-0.1757,-0.1757,-0.1759,-0.1886,-0.1897,-0.1741,-0.1741,-0.1741,-0.1742,-0.1742,-0.1742,-0.1656,-0.1619,-0.1644,-0.1613,-0.1629,-0.1612,-0.1613,-0.1617,-0.1627,-0.1608,-0.1601,-0.1621,-0.1639,-0.1635,-0.1628,-0.1637,-0.163,-0.16,-0.1615,-0.1733,-0.175,-0.1767,-0.1777,-0.1599,-0.1599,-0.1488,-0.1487,-0.1487]}]]